When you browse on this site, cookies collect data to enhance your experience and personalize the content and advertising you see.
Visit our Privacy Policy to learn more. By continuing to use the site, you agree to this use of cookies and data.

Hourly Weather Quebec

Today, 20 September, Sunday

Time Temperature Precipitation Wind Pressure Humidity
00:00 -3°C° 0 mm 1 mps 705 mmHg 90%
01:00 -3°C° 0 mm 1 mps 706 mmHg 88%
02:00 -3°C° 0 mm 1 mps 706 mmHg 87%
03:00 -3°C° 0 mm 1 mps 706 mmHg 86%
04:00 -3°C° 0 mm 1 mps 706 mmHg 85%
05:00 -4°C° 0 mm 2 mps 706 mmHg 83%
06:00 -4°C° 0 mm 3 mps 707 mmHg 82%
07:00 -2°C° 0 mm 3 mps 707 mmHg 80%
08:00 -2°C° 0 mm 4 mps 707 mmHg 72%
09:00 0°C° 0 mm 4 mps 707 mmHg 64%
10:00 +1°C° 0 mm 5 mps 708 mmHg 57%
11:00 +2°C° 0 mm 5 mps 707 mmHg 56%
12:00 +3°C° 0 mm 5 mps 707 mmHg 54%
13:00 +5°C° 0 mm 5 mps 707 mmHg 53%
14:00 +5°C° 0 mm 5 mps 707 mmHg 55%
15:00 +5°C° 0 mm 5 mps 707 mmHg 57%
16:00 +5°C° 0 mm 5 mps 707 mmHg 59%
17:00 +3°C° 0 mm 4 mps 707 mmHg 67%
18:00 +1°C° 0 mm 4 mps 706 mmHg 75%
19:00 0°C° 0 mm 3 mps 706 mmHg 83%
20:00 0°C° 0 mm 3 mps 706 mmHg 84%
21:00 0°C° 0 mm 3 mps 706 mmHg 85%
22:00 -1°C° 0 mm 3 mps 706 mmHg 85%
23:00 -2°C° 0 mm 4 mps 706 mmHg 84%

Tomorrow, 21 September, Monday

Time Temperature Precipitation Wind Pressure Humidity
00:00 -1°C° 0 mm 4 mps 706 mmHg 82%
01:00 -1°C° 0 mm 4 mps 706 mmHg 80%
02:00 -1°C° 0 mm 4 mps 706 mmHg 82%
03:00 -2°C° 0 mm 4 mps 706 mmHg 83%
04:00 -2°C° 0 mm 4 mps 705 mmHg 84%
05:00 -1°C° 0 mm 4 mps 705 mmHg 84%
06:00 0°C° 0 mm 5 mps 705 mmHg 83%
07:00 +1°C° 0 mm 5 mps 705 mmHg 82%
08:00 +3°C° 0 mm 5 mps 705 mmHg 79%
09:00 +4°C° 0 mm 6 mps 705 mmHg 77%
10:00 +7°C° 0 mm 6 mps 705 mmHg 74%
11:00 +8°C° 0 mm 6 mps 705 mmHg 70%
12:00 +10°C° 0 mm 7 mps 705 mmHg 65%
13:00 +11°C° 0 mm 7 mps 704 mmHg 61%
14:00 +11°C° 0 mm 7 mps 704 mmHg 62%
15:00 +11°C° 0 mm 7 mps 703 mmHg 63%
16:00 +11°C° 0 mm 7 mps 702 mmHg 64%
17:00 +9°C° 0 mm 6 mps 702 mmHg 69%
18:00 +8°C° 0 mm 6 mps 702 mmHg 75%
19:00 +7°C° 0 mm 5 mps 702 mmHg 80%
20:00 +6°C° 0 mm 5 mps 702 mmHg 83%
21:00 +6°C° 0 mm 5 mps 702 mmHg 85%
22:00 +5°C° 0 mm 5 mps 702 mmHg 88%
23:00 +5°C° 0 mm 4 mps 702 mmHg 89%

Day after tomorrow, 22 September, Tuesday

Time Temperature Precipitation Wind Pressure Humidity
00:00 +5°C° 0 mm 4 mps 701 mmHg 90%
01:00 +5°C° 0 mm 4 mps 701 mmHg 91%
02:00 +5°C° 0 mm 4 mps 701 mmHg 91%
03:00 +4°C° 0 mm 4 mps 700 mmHg 92%
04:00 +4°C° 0 mm 4 mps 700 mmHg 92%
05:00 +3°C° 0 mm 5 mps 700 mmHg 91%
06:00 +3°C° 0 mm 5 mps 700 mmHg 90%
07:00 +5°C° 0 mm 5 mps 699 mmHg 89%
08:00 +5°C° 0 mm 6 mps 699 mmHg 82%
09:00 +8°C° 0 mm 6 mps 699 mmHg 75%
10:00 +10°C° 0 mm 7 mps 699 mmHg 67%
11:00 +11°C° 0 mm 7 mps 698 mmHg 63%
12:00 +14°C° 0 mm 7 mps 698 mmHg 59%
13:00 +15°C° 0 mm 7 mps 697 mmHg 55%
14:00 +15°C° 0 mm 7 mps 697 mmHg 57%
15:00 +15°C° 0 mm 6 mps 696 mmHg 59%
16:00 +14°C° 0 mm 6 mps 696 mmHg 61%
17:00 +13°C° 0 mm 5 mps 695 mmHg 69%
18:00 +11°C° 0 mm 4 mps 695 mmHg 76%
19:00 +10°C° 0 mm 3 mps 695 mmHg 83%
20:00 +10°C° 0 mm 3 mps 695 mmHg 85%
21:00 +10°C° 0 mm 2 mps 694 mmHg 88%
22:00 +10°C° 0 mm 2 mps 694 mmHg 90%
23:00 +9°C° 0 mm 2 mps 693 mmHg 92%

23 September, Wednesday

Time Temperature Precipitation Wind Pressure Humidity
00:00 +9°C° 0 mm 2 mps 693 mmHg 93%
01:00 +8°C° 0 mm 2 mps 692 mmHg 95%
02:00 +8°C° 0.1 mm 2 mps 692 mmHg 96%
03:00 +9°C° 0.1 mm 2 mps 692 mmHg 97%
04:00 +9°C° 0.1 mm 2 mps 692 mmHg 98%
05:00 +9°C° 0.1 mm 3 mps 692 mmHg 97%
06:00 +9°C° 0.1 mm 3 mps 692 mmHg 97%
07:00 +8°C° 0.1 mm 4 mps 692 mmHg 96%
08:00 +8°C° 0 mm 5 mps 693 mmHg 92%
09:00 +8°C° 0 mm 5 mps 693 mmHg 88%
10:00 +7°C° 0 mm 5 mps 693 mmHg 83%
11:00 +7°C° 0 mm 5 mps 693 mmHg 83%
12:00 +7°C° 0 mm 5 mps 693 mmHg 83%
13:00 +6°C° 0 mm 4 mps 692 mmHg 82%
14:00 +6°C° 0 mm 4 mps 692 mmHg 82%
15:00 +6°C° 0 mm 4 mps 693 mmHg 82%
16:00 +5°C° 0 mm 4 mps 693 mmHg 81%
17:00 +5°C° 0 mm 4 mps 693 mmHg 83%
18:00 +4°C° 0 mm 3 mps 692 mmHg 86%
19:00 +4°C° 0 mm 3 mps 692 mmHg 88%
20:00 +5°C° 0 mm 2 mps 692 mmHg 87%
21:00 +5°C° 0 mm 2 mps 692 mmHg 87%
22:00 +5°C° 0 mm 2 mps 692 mmHg 87%
23:00 +5°C° 0 mm 2 mps 691 mmHg 89%

24 September, Thursday

Time Temperature Precipitation Wind Pressure Humidity
00:00 +4°C° 0 mm 2 mps 690 mmHg 91%
01:00 +4°C° 0 mm 2 mps 690 mmHg 93%
02:00 +3°C° 0 mm 3 mps 689 mmHg 92%
03:00 +3°C° 0 mm 3 mps 689 mmHg 91%
04:00 +3°C° 0 mm 4 mps 689 mmHg 90%
05:00 +3°C° 0.9 mm 4 mps 688 mmHg 91%
06:00 +2°C° 0.9 mm 5 mps 687 mmHg 93%
07:00 +2°C° 0.9 mm 5 mps 687 mmHg 94%
08:00 +3°C° 2.1 mm 5 mps 686 mmHg 94%
09:00 +3°C° 2.1 mm 5 mps 686 mmHg 95%
10:00 +4°C° 2.1 mm 4 mps 686 mmHg 95%
11:00 +3°C° 1.2 mm 5 mps 686 mmHg 95%
12:00 +3°C° 1.2 mm 5 mps 686 mmHg 96%
13:00 +3°C° 1.2 mm 5 mps 686 mmHg 96%
14:00 +2°C° 0.5 mm 6 mps 687 mmHg 94%
15:00 -1°C° 0.5 mm 7 mps 688 mmHg 92%
16:00 -2°C° 0.5 mm 8 mps 688 mmHg 90%
17:00 -2°C° 0.1 mm 8 mps 689 mmHg 90%
18:00 -4°C° 0.1 mm 8 mps 690 mmHg 89%
19:00 -3°C° 0.1 mm 7 mps 692 mmHg 89%
20:00 -4°C° 0.1 mm 7 mps 692 mmHg 90%
21:00 -5°C° 0.1 mm 8 mps 692 mmHg 91%
22:00 -5°C° 0.1 mm 8 mps 693 mmHg 92%
23:00 -6°C° 0.2 mm 8 mps 693 mmHg 91%

25 September, Friday

Time Temperature Precipitation Wind Pressure Humidity
00:00 -6°C° 0.2 mm 8 mps 694 mmHg 91%
01:00 -6°C° 0.2 mm 8 mps 694 mmHg 91%
02:00 -6°C° 0.1 mm 7 mps 695 mmHg 90%
03:00 -6°C° 0.1 mm 7 mps 695 mmHg 89%
04:00 -6°C° 0.1 mm 7 mps 696 mmHg 88%
05:00 -5°C° 0 mm 6 mps 697 mmHg 88%
06:00 -5°C° 0 mm 6 mps 698 mmHg 88%
07:00 -5°C° 0 mm 5 mps 698 mmHg 87%
08:00 -4°C° 0 mm 5 mps 699 mmHg 80%
09:00 -2°C° 0 mm 4 mps 699 mmHg 73%
10:00 0°C° 0 mm 4 mps 700 mmHg 66%
11:00 +2°C° 0 mm 3 mps 700 mmHg 63%
12:00 +3°C° 0 mm 3 mps 700 mmHg 59%
13:00 +5°C° 0 mm 2 mps 700 mmHg 56%
14:00 +5°C° 0 mm 2 mps 700 mmHg 56%
15:00 +6°C° 0 mm 1 mps 700 mmHg 56%
16:00 +7°C° 0 mm 1 mps 700 mmHg 56%
17:00 +5°C° 0 mm 1 mps 700 mmHg 61%
18:00 +3°C° 0 mm 2 mps 699 mmHg 66%
19:00 +2°C° 0 mm 2 mps 699 mmHg 72%
20:00 0°C° 0 mm 4 mps 698 mmHg 70%
21:00 0°C° 0 mm 5 mps 698 mmHg 68%
22:00 -2°C° 0 mm 6 mps 697 mmHg 67%
23:00 -1°C° 0 mm 6 mps 697 mmHg 66%
Show more